GW6013 Weather Reports


time (UTC)temp
F
wind
direction
speed
knots
gust
knots
rain 1hr
in
rain 24hr
in
rain mn
in
humidity
%
barometer
mb
20260505090012 51 247 2.6 6.1 0.00 0.00 0.00 85 1010.4
20260505084514 51 106 1.7 7.8 0.00 0.00 0.00 85 1010.4
20260505083010 51 111 0.9 4.3 0.00 0.00 0.00 85 1010.1
20260505081506 51 201 2.6 7.8 0.00 0.00 0.00 85 1010.2
20260505080010 50 212 1.7 7.0 0.00 0.00 0.00 85 1010.4
20260505074516 50 131 1.7 5.2 0.00 0.00 0.00 85 1010.4
20260505073017 50 219 1.7 7.0 0.00 0.00 0.00 84 1010.4
20260505071505 50 214 1.7 5.2 0.00 0.00 0.00 84 1010.4
20260505070008 50 139 0.9 4.3 0.00 0.00 0.00 84 1010.4
20260505064511 50 191 1.7 5.2 0.00 0.00 0.00 83 1010.5
20260505063016 51 236 1.7 8.7 0.00 0.00 0.00 82 1010.6
20260505061518 50 143 1.7 5.2 0.00 0.00 0.00 82 1010.7
20260505060024 51 160 0.9 4.3 0.00 0.00 0.00 81 1010.8
20260505054511 51 191 2.6 6.1 0.00 0.00 0.00 79 1010.7
20260505053018 52 238 2.6 11.3 0.00 0.00 0.00 78 1010.6
20260505051522 52 238 1.7 8.7 0.00 0.00 0.00 78 1010.7
20260505041531 53 262 2.6 9.6 0.00 0.00 0.00 74 1010.8
20260505040020 53 238 1.7 12.2 0.00 0.00 0.00 73 1010.8
20260505034524 53 110 3.5 8.7 0.00 0.00 0.00 72 1010.8
20260505033022 54 219 0.9 10.4 0.00 0.00 0.00 71 1010.7
20260505031511 54 212 2.6 10.4 0.00 0.00 0.00 69 1010.8
20260505030017 54 226 3.5 9.6 0.00 0.00 0.00 69 1010.9
20260505024525 55 146 3.5 9.6 0.00 0.00 0.00 68 1010.9
20260505023033 55 236 1.7 9.6 0.00 0.00 0.00 68 1010.8
20260505021527 55 149 3.5 7.0 0.00 0.00 0.00 67 1010.9
20260505020018 55 219 3.5 7.0 0.00 0.00 0.00 66 1010.9
20260505014518 56 259 2.6 15.6 0.00 0.00 0.00 64 1010.8
20260505013023 56 240 0.9 8.7 0.00 0.00 0.00 62 1010.6
20260505011530 56 172 4.3 12.2 0.00 0.00 0.00 60 1010.4
20260505010026 57 112 1.7 10.4 0.00 0.00 0.00 59 1010.2
20260505004527 57 210 4.3 11.3 0.00 0.00 0.00 56 1010.0
20260505003016 58 258 1.7 10.4 0.00 0.00 0.00 55 1009.4
20260505001522 58 205 2.6 9.6 0.00 0.00 0.00 54 1008.9
20260505000030 59 211 5.2 8.7 0.00 0.00 0.00 52 1008.8
20260504234524 60 100 2.6 12.2 0.00 0.00 0.00 50 1008.7
20260504233026 61 269 2.6 9.6 0.00 0.00 0.00 48 1008.5
20260504231519 62 231 1.7 9.6 0.00 0.00 0.00 47 1008.2
20260504230024 63 256 3.5 11.3 0.00 0.00 0.00 45 1008.0
20260504224508 64 254 4.3 10.4 0.00 0.00 0.00 46 1007.8
20260504223010 65 184 7.0 14.8 0.00 0.00 0.00 44 1007.5
20260504221520 65 103 7.0 16.5 0.00 0.00 0.00 43 1007.3
20260504220019 66 248 6.1 18.2 0.00 0.00 0.00 41 1007.4
20260504214511 67 126 4.3 13.0 0.00 0.00 0.00 40 1007.3
20260504213026 68 250 3.5 18.2 0.00 0.00 0.00 38 1007.2
20260504211517 69 198 6.1 15.6 0.00 0.00 0.00 36 1007.1
20260504210019 69 140 4.3 12.2 0.00 0.00 0.00 36 1007.0
20260504204522 70 245 5.2 13.0 0.00 0.00 0.00 36 1006.9
20260504203008 71 207 4.3 8.7 0.00 0.00 0.00 32 1007.0
20260504201517 71 212 5.2 13.0 0.00 0.00 0.00 29 1007.0
20260504200016 72 220 3.5 12.2 0.00 0.00 0.00 30 1007.0
20260504194522 71 193 5.2 14.8 0.00 0.00 0.00 28 1007.1
20260504193025 71 204 4.3 13.9 0.00 0.00 0.00 28 1007.2
20260504191507 71 229 3.5 11.3 0.00 0.00 0.00 28 1007.1
20260504190014 71 204 4.3 9.6 0.00 0.00 0.00 28 1007.2
20260504184518 71 359 3.5 19.1 0.00 0.00 0.00 28 1007.3
20260504183024 72 73 3.5 12.2 0.00 0.00 0.00 28 1007.3
20260504181527 71 217 3.5 10.4 0.00 0.00 0.00 28 1007.3
20260504180010 70 262 4.3 13.0 0.00 0.00 0.00 28 1007.7
20260504174514 70 237 3.5 15.6 0.00 0.00 0.00 28 1007.5
20260504173031 69 193 5.2 13.9 0.00 0.00 0.00 28 1007.7
20260504171525 70 221 2.6 7.8 0.00 0.00 0.00 30 1007.6